Change the Weather History Date:

Friday, January 10, 2014

  Actual Average Record
Temperature  
Mean Temperature 56 °F -  
Max Temperature 70 °F 54 °F 72 °F (2008)
Min Temperature 41 °F 33 °F 21 °F (2004)
Degree Days  
Heating Degree Days 10    
Growing Degree Days 6 (Base 50)    
Moisture  
Dew Point 54 °F    
Average Humidity 80    
Maximum Humidity 93    
Minimum Humidity 53    
Precipitation  
Precipitation 0.37 in - - ()
Sea Level Pressure  
Sea Level Pressure 30.27 in    
Wind  
Wind Speed 8 mph (SE)    
Max Wind Speed 17 mph    
Max Gust Speed 30 mph    
Visibility 9 miles    
Events Rain    
Averages and records for this station are not official NWS values.
T = Trace of Precipitation, MM = Missing Value Source: NWS Daily Summary

Daily Weather History Graph

Daily Weather History Graph

Search for Another Location

Airport or City:

Trip Planner

Search our weather history database for the weather conditions in past years. The results will help you decide how hot, cold, wet, or windy it might be!

Date:

Astronomy

Jan. 10, 2014 Rise Set
Actual Time 7:15 AM EST 5:14 PM EST
Civil Twilight 6:47 AM EST 5:42 PM EST
Nautical Twilight 6:16 AM EST 6:13 PM EST
Astronomical Twilight 5:46 AM EST 6:44 PM EST
Moon 1:14 PM EST (1/10) 2:24 AM EST (1/10)
Length of Visible Light 10h 54m
Length of Day
9h 59m
Waxing Gibbous, 75% of the Moon is Illuminated
Jan 10
Waxing Gibbous
Jan 15
Full
Jan 24
Last Quarter
Jan 30
New
Feb 6
First Quarter

Hourly Weather History & Observations

Time (EST) Temp. Windchill Dew Point Humidity Pressure Visibility Wind Dir Wind Speed Gust Speed Precip Events Conditions
12:54 AM 43.0 °F 39.5 °F 37.0 °F 80% 30.45 in 10.0 mi ESE 5.8 mph - N/A   Overcast
1:54 AM 44.1 °F 42.5 °F 37.9 °F 79% 30.43 in 10.0 mi NE 3.5 mph - N/A   Partly Cloudy
2:54 AM 41.0 °F 39.0 °F 37.0 °F 86% 30.40 in 10.0 mi ENE 3.5 mph - N/A   Partly Cloudy
3:54 AM 43.0 °F 40.3 °F 37.9 °F 82% 30.38 in 10.0 mi ENE 4.6 mph - N/A   Mostly Cloudy
4:54 AM 44.1 °F - 41.0 °F 89% 30.38 in 10.0 mi Calm Calm - N/A   Scattered Clouds
5:54 AM 45.0 °F 43.5 °F 41.0 °F 86% 30.38 in 10.0 mi NNE 3.5 mph - N/A   Overcast
6:54 AM 48.0 °F - 45.0 °F 89% 30.37 in 10.0 mi SE 6.9 mph - N/A   Mostly Cloudy
7:54 AM 54.0 °F - 48.0 °F 80% 30.38 in 10.0 mi SE 8.1 mph - N/A   Mostly Cloudy
8:54 AM 60.1 °F - 50.0 °F 69% 30.38 in 10.0 mi SE 8.1 mph - N/A   Mostly Cloudy
9:54 AM 64.0 °F - 51.1 °F 63% 30.38 in 10.0 mi SSE 9.2 mph - N/A   Overcast
10:54 AM 66.9 °F - 52.0 °F 59% 30.36 in 10.0 mi SE 10.4 mph - N/A   Mostly Cloudy
11:54 AM 69.1 °F - 53.1 °F 57% 30.32 in 10.0 mi South 17.3 mph - N/A   Overcast
12:54 PM 70.0 °F - 52.0 °F 53% 30.29 in 10.0 mi SSE 13.8 mph 29.9 mph N/A   Mostly Cloudy
1:54 PM 68.0 °F - 53.1 °F 59% 30.27 in 10.0 mi SSE 12.7 mph 19.6 mph N/A   Overcast
2:54 PM 68.0 °F - 55.0 °F 63% 30.26 in 10.0 mi SE 12.7 mph - N/A   Mostly Cloudy
3:54 PM 68.0 °F - 55.9 °F 65% 30.25 in 10.0 mi SE 10.4 mph - N/A   Mostly Cloudy
4:54 PM 66.0 °F - 57.0 °F 73% 30.24 in 10.0 mi SE 9.2 mph - N/A   Mostly Cloudy
5:54 PM 63.0 °F - 55.9 °F 78% 30.23 in 10.0 mi ESE 6.9 mph - N/A   Mostly Cloudy
6:54 PM 62.1 °F - 57.0 °F 84% 30.22 in 10.0 mi SE 8.1 mph - N/A   Partly Cloudy
7:54 PM 63.0 °F - 57.9 °F 84% 30.20 in 10.0 mi ESE 9.2 mph - N/A   Mostly Cloudy
8:54 PM 64.9 °F - 61.0 °F 87% 30.20 in 10.0 mi SE 9.2 mph - N/A   Overcast
9:28 PM 64.9 °F - 62.1 °F 90% 30.19 in 10.0 mi SE 11.5 mph - 0.00 in Rain Light Rain
9:54 PM 66.0 °F - 63.0 °F 90% 30.16 in 8.0 mi SE 13.8 mph - 0.00 in Rain Light Rain
10:22 PM 66.0 °F - 64.0 °F 93% 30.16 in 10.0 mi SE 10.4 mph - 0.01 in   Overcast
10:54 PM 66.9 °F - 64.0 °F 90% 30.14 in 10.0 mi SE 10.4 mph 20.7 mph 0.01 in Rain Light Rain
11:08 PM 66.9 °F - 64.9 °F 93% 30.14 in 1.8 mi SSE 15.0 mph - 0.19 in Rain Heavy Rain
11:13 PM 66.9 °F - 64.9 °F 93% 30.14 in 3.0 mi SSE 13.8 mph 20.7 mph 0.21 in Rain Rain
11:21 PM 66.9 °F - 64.9 °F 93% 30.14 in 1.8 mi North - - 0.33 in Rain Heavy Rain
11:25 PM 66.9 °F - 64.9 °F 93% 30.14 in 2.0 mi North - - 0.35 in Rain Heavy Rain
11:34 PM 66.9 °F - 63.0 °F 87% 30.13 in 9.0 mi South 13.8 mph 26.5 mph 0.36 in Rain Light Rain
11:54 PM 66.0 °F - 62.1 °F 87% 30.11 in 10.0 mi SSE 11.5 mph - 0.36 in   Overcast